Regional Weather Roundup
Issued by NWS

Home | Current Version | Previous Version | Graphics & Text | Print | Product List | Glossary On
Versions: 1 2 3 4 5 6 7 8 9 10 11 12 13 14 15 16 17 18 19 20 21 22 23 24 25 26 27 28 29 30 31 32 33 34 35 36 37 38 39 40 41 42 43 44 45 46 47 48 49 50
000
ASUS44 KMEG 190510
RWRTN
TENNESSEE HOURLY STATE WEATHER ROUNDUP
NATIONAL WEATHER SERVICE MEMPHIS TN
1200 AM CDT SAT APR 19 2014

TNZ002-004-019-021-049-052-054-088>092-190600-
WEST TENNESSEE

CITY           SKY/WX    TMP DP  RH WIND       PRES   REMARKS
MEMPHIS INTL   PTCLDY    60  51  72 S3        30.18S
NWS MEMPHIS      N/A     56 N/A N/A MISG        N/A
JACKSON        MOCLDY    56  50  80 CALM      30.19R
DYERSBURG      MOCLDY    55  45  67 CALM      30.21S
UNION CITY     CLEAR     52  48  87 NE3       30.19S
PARIS          CLOUDY    48  44  86 CALM      30.20S
LEXINGTON      CLEAR     54  48  82 CALM      30.18S
SAVANNAH       MOCLDY    50  49  96 CALM      30.19R
$$

TNZ008-025-027-028-033-062-065-066-190600-
NORTH MIDDLE TENNESSEE

CITY           SKY/WX    TMP DP  RH WIND       PRES   REMARKS
NASHVILLE      MOCLDY    56  47  71 CALM      30.18F
DICKSON        MOCLDY    54  45  71 CALM      30.18F
PORTLAND       MOCLDY    52  46  82 CALM      30.18F
CLARKSVILLE    CLOUDY    55  47  74 CALM      30.19F
SMYRNA         MOCLDY    51  47  86 CALM      30.18F
MURFREESBORO   MOCLDY    56  46  69 CALM      30.17S
COOKEVILLE     CLEAR     46  45  93 CALM      30.17F
GALLATIN       MOCLDY    52  47  83 N3        30.19F
CROSSVILLE     CLOUDY    51  40  65 CALM      30.19F
$$

TNZ061-075-076-078-094-096-097-190600-
SOUTH MIDDLE TENNESSEE

CITY           SKY/WX    TMP DP  RH WIND       PRES   REMARKS
LEWISBURG      MOCLDY    51  47  86 CALM      30.17S
FAYETTEVILLE   CLOUDY    54  43  66 NE6       30.17S
TULLAHOMA      CLEAR     50  45  81 CALM      30.18S
WINCHESTER     CLEAR     50  46  87 CALM      30.16F
MCMINNVILLE    CLEAR     52  48  87 CALM      30.17F
COLUMBIA       CLEAR     52  52 100 CALM      30.16S
SHELBYVILLE    MOCLDY    52  48  87 E3        30.18F
$$

TNZ017-018-042-046-047-190600-
NORTHEAST TENNESSEE

CITY           SKY/WX    TMP DP  RH WIND       PRES   REMARKS
TRI CITIES     CLOUDY    51  39  63 CALM      30.18F
ELIZABETHTON   CLOUDY    48  39  71 CALM      30.18F
$$

TNZ012-013-036-069-073-074-190600-
CENTRAL EAST TENNESSEE

CITY           SKY/WX    TMP DP  RH WIND       PRES   REMARKS
KNOXVILLE      CLOUDY    55  40  56 NE8       30.15F
OAK RIDGE      CLOUDY    53  43  68 CALM      30.18F
$$

TNZ083-085-099-190600-
SOUTHEAST TENNESSEE

CITY           SKY/WX    TMP DP  RH WIND       PRES   REMARKS
CHATTANOOGA    CLOUDY    54  47  77 CALM      30.15F
$$

SKY/WX REPORTED AS FAIR MEANS FEW OR NO CLOUDS BELOW
12 THOUSAND FEET.




USA.gov is the U.S. government's official web portal to all federal, state and local government web resources and services.